• In United Kingdom
  • List of Countries
  • For 7 days
  • Water Temperature
  • Satellite Maps
  • Weather Map
  • Weather Widgets
  • user-avatar
    Login

    Hourly Weather Wien

    Today, 21 September, Thursday

    Time Temperature Precipitation Wind Pressure Humidity
    00:00 +8°C° 0 mm 5 mps 745 mmHg 85%
    01:00 +8°C° 0 mm 5 mps 745 mmHg 85%
    02:00 +8°C° 0 mm 5 mps 745 mmHg 85%
    03:00 +8°C° 0 mm 5 mps 745 mmHg 86%
    04:00 +8°C° 0 mm 5 mps 745 mmHg 86%
    05:00 +8°C° 0 mm 5 mps 745 mmHg 85%
    06:00 +8°C° 0 mm 6 mps 745 mmHg 84%
    07:00 +9°C° 0 mm 6 mps 745 mmHg 83%
    08:00 +10°C° 0 mm 6 mps 745 mmHg 78%
    09:00 +11°C° 0 mm 7 mps 745 mmHg 74%
    10:00 +12°C° 0 mm 7 mps 745 mmHg 69%
    11:00 +14°C° 0.1 mm 7 mps 745 mmHg 66%
    12:00 +15°C° 0.1 mm 7 mps 745 mmHg 64%
    13:00 +15°C° 0.1 mm 7 mps 745 mmHg 61%
    14:00 +15°C° 0.2 mm 6 mps 744 mmHg 63%
    15:00 +15°C° 0.2 mm 5 mps 744 mmHg 64%
    16:00 +15°C° 0.2 mm 5 mps 744 mmHg 66%
    17:00 +14°C° 0 mm 4 mps 744 mmHg 70%
    18:00 +13°C° 0 mm 4 mps 744 mmHg 73%
    19:00 +12°C° 0 mm 4 mps 745 mmHg 76%
    20:00 +12°C° 0 mm 4 mps 745 mmHg 78%
    21:00 +11°C° 0 mm 4 mps 745 mmHg 80%
    22:00 +11°C° 0 mm 4 mps 745 mmHg 81%
    23:00 +11°C° 0 mm 4 mps 745 mmHg 82%

    Tomorrow, 22 September, Friday

    Time Temperature Precipitation Wind Pressure Humidity
    00:00 +10°C° 0 mm 4 mps 746 mmHg 83%
    01:00 +10°C° 0 mm 4 mps 746 mmHg 84%
    02:00 +10°C° 0 mm 4 mps 746 mmHg 84%
    03:00 +10°C° 0 mm 4 mps 746 mmHg 85%
    04:00 +8°C° 0 mm 4 mps 746 mmHg 85%
    05:00 +10°C° 0 mm 3 mps 746 mmHg 84%
    06:00 +10°C° 0 mm 3 mps 746 mmHg 82%
    07:00 +11°C° 0 mm 3 mps 746 mmHg 81%
    08:00 +12°C° 0 mm 3 mps 746 mmHg 75%
    09:00 +14°C° 0 mm 3 mps 746 mmHg 69%
    10:00 +17°C° 0 mm 3 mps 746 mmHg 63%
    11:00 +18°C° 0 mm 3 mps 746 mmHg 60%
    12:00 +18°C° 0 mm 3 mps 746 mmHg 57%
    13:00 +19°C° 0 mm 3 mps 746 mmHg 54%
    14:00 +19°C° 0 mm 3 mps 746 mmHg 55%
    15:00 +19°C° 0 mm 3 mps 746 mmHg 56%
    16:00 +19°C° 0 mm 2 mps 746 mmHg 57%
    17:00 +18°C° 0 mm 2 mps 746 mmHg 62%
    18:00 +16°C° 0 mm 1 mps 747 mmHg 67%
    19:00 +15°C° 0 mm 1 mps 747 mmHg 72%
    20:00 +14°C° 0 mm 1 mps 747 mmHg 75%
    21:00 +14°C° 0 mm 1 mps 747 mmHg 77%
    22:00 +13°C° 0 mm 1 mps 748 mmHg 80%
    23:00 +13°C° 0 mm 1 mps 748 mmHg 81%

    Day after tomorrow, 23 September, Saturday

    Time Temperature Precipitation Wind Pressure Humidity
    00:00 +12°C° 0 mm 1 mps 748 mmHg 82%
    01:00 +12°C° 0 mm 1 mps 748 mmHg 83%
    02:00 +12°C° 0 mm 1 mps 748 mmHg 84%
    03:00 +12°C° 0 mm 1 mps 748 mmHg 84%
    04:00 +11°C° 0 mm 1 mps 748 mmHg 85%
    05:00 +12°C° 0 mm 1 mps 748 mmHg 83%
    06:00 +12°C° 0 mm 1 mps 748 mmHg 82%
    07:00 +13°C° 0 mm 1 mps 748 mmHg 81%
    08:00 +15°C° 0 mm 2 mps 748 mmHg 74%
    09:00 +16°C° 0 mm 2 mps 747 mmHg 67%
    10:00 +18°C° 0 mm 2 mps 747 mmHg 60%
    11:00 +19°C° 0 mm 2 mps 747 mmHg 57%
    12:00 +20°C° 0 mm 2 mps 747 mmHg 55%
    13:00 +21°C° 0 mm 2 mps 746 mmHg 53%
    14:00 +21°C° 0 mm 2 mps 746 mmHg 54%
    15:00 +20°C° 0 mm 2 mps 746 mmHg 56%
    16:00 +20°C° 0 mm 2 mps 746 mmHg 57%
    17:00 +19°C° 0 mm 2 mps 746 mmHg 63%
    18:00 +18°C° 0 mm 1 mps 746 mmHg 70%
    19:00 +15°C° 0 mm 1 mps 747 mmHg 76%
    20:00 +15°C° 0 mm 1 mps 747 mmHg 77%
    21:00 +14°C° 0 mm 1 mps 747 mmHg 79%
    22:00 +14°C° 0 mm 1 mps 747 mmHg 80%
    23:00 +13°C° 0 mm 1 mps 747 mmHg 82%

    24 September, Sunday

    Time Temperature Precipitation Wind Pressure Humidity
    00:00 +13°C° 0 mm 1 mps 747 mmHg 84%
    01:00 +12°C° 0 mm 1 mps 747 mmHg 85%
    02:00 +12°C° 0 mm 1 mps 747 mmHg 87%
    03:00 +12°C° 0 mm 1 mps 747 mmHg 88%
    04:00 +11°C° 0 mm 1 mps 747 mmHg 89%
    05:00 +12°C° 0 mm 1 mps 747 mmHg 88%
    06:00 +12°C° 0 mm 2 mps 747 mmHg 87%
    07:00 +12°C° 0 mm 2 mps 747 mmHg 86%
    08:00 +14°C° 0 mm 2 mps 747 mmHg 78%
    09:00 +16°C° 0 mm 2 mps 747 mmHg 71%
    10:00 +18°C° 0 mm 3 mps 747 mmHg 64%
    11:00 +19°C° 0 mm 3 mps 747 mmHg 61%
    12:00 +19°C° 0 mm 3 mps 747 mmHg 58%
    13:00 +20°C° 0 mm 4 mps 746 mmHg 54%
    14:00 +20°C° 0 mm 4 mps 746 mmHg 56%
    15:00 +20°C° 0 mm 4 mps 746 mmHg 57%
    16:00 +19°C° 0 mm 4 mps 746 mmHg 58%
    17:00 +18°C° 0 mm 3 mps 746 mmHg 65%
    18:00 +16°C° 0 mm 3 mps 746 mmHg 72%
    19:00 +14°C° 0 mm 3 mps 747 mmHg 80%
    20:00 +14°C° 0.2 mm 3 mps 747 mmHg 82%
    21:00 +14°C° 0.2 mm 2 mps 747 mmHg 85%
    22:00 +14°C° 0.2 mm 2 mps 747 mmHg 88%
    23:00 +13°C° 0.3 mm 3 mps 746 mmHg 88%

    25 September, Monday

    Time Temperature Precipitation Wind Pressure Humidity
    00:00 +13°C° 0.3 mm 3 mps 746 mmHg 89%
    01:00 +13°C° 0.3 mm 3 mps 746 mmHg 90%
    02:00 +13°C° 0.3 mm 3 mps 746 mmHg 91%
    03:00 +13°C° 0.3 mm 3 mps 745 mmHg 91%
    04:00 +12°C° 0.3 mm 3 mps 745 mmHg 92%
    05:00 +12°C° 0.4 mm 3 mps 745 mmHg 92%
    06:00 +13°C° 0.4 mm 3 mps 745 mmHg 92%
    07:00 +13°C° 0.4 mm 3 mps 745 mmHg 91%
    08:00 +13°C° 0.5 mm 3 mps 745 mmHg 90%
    09:00 +15°C° 0.5 mm 2 mps 745 mmHg 88%
    10:00 +15°C° 0.5 mm 2 mps 745 mmHg 87%
    11:00 +16°C° 0.4 mm 2 mps 745 mmHg 84%
    12:00 +16°C° 0.4 mm 2 mps 745 mmHg 81%
    13:00 +17°C° 0.4 mm 2 mps 745 mmHg 79%
    14:00 +17°C° 0.3 mm 2 mps 745 mmHg 77%
    15:00 +18°C° 0.3 mm 1 mps 745 mmHg 75%
    16:00 +19°C° 0.3 mm 1 mps 744 mmHg 73%
    17:00 +16°C° 0.2 mm 1 mps 745 mmHg 79%
    18:00 +15°C° 0.2 mm 1 mps 745 mmHg 84%
    19:00 +14°C° 0.2 mm 1 mps 745 mmHg 89%
    20:00 +14°C° 0 mm 1 mps 745 mmHg 90%
    21:00 +13°C° 0 mm 1 mps 745 mmHg 91%
    22:00 +13°C° 0 mm 1 mps 745 mmHg 93%
    23:00 +12°C° 0 mm 1 mps 745 mmHg 94%

    26 September, Tuesday

    Time Temperature Precipitation Wind Pressure Humidity
    00:00 +12°C° 0 mm 1 mps 745 mmHg 94%
    01:00 +12°C° 0 mm 1 mps 745 mmHg 95%
    02:00 +12°C° 0 mm 1 mps 745 mmHg 96%
    03:00 +10°C° 0 mm 2 mps 745 mmHg 96%
    04:00 +10°C° 0 mm 2 mps 745 mmHg 97%
    05:00 +12°C° 0 mm 2 mps 746 mmHg 96%
    06:00 +12°C° 0 mm 2 mps 746 mmHg 96%
    07:00 +12°C° 0 mm 2 mps 746 mmHg 95%
    08:00 +13°C° 0 mm 3 mps 746 mmHg 90%
    09:00 +14°C° 0 mm 3 mps 746 mmHg 84%
    10:00 +17°C° 0 mm 3 mps 746 mmHg 79%
    11:00 +18°C° 0 mm 4 mps 746 mmHg 74%
    12:00 +19°C° 0 mm 4 mps 746 mmHg 69%
    13:00 +20°C° 0 mm 4 mps 746 mmHg 64%
    14:00 +20°C° 0 mm 4 mps 746 mmHg 64%
    15:00 +20°C° 0 mm 3 mps 745 mmHg 63%
    16:00 +20°C° 0 mm 3 mps 745 mmHg 62%
    17:00 +19°C° 0 mm 3 mps 746 mmHg 68%
    18:00 +17°C° 0 mm 3 mps 746 mmHg 74%
    19:00 +16°C° 0 mm 2 mps 746 mmHg 79%
    20:00 +15°C° 0 mm 2 mps 746 mmHg 81%
    21:00 +15°C° 0 mm 2 mps 746 mmHg 83%
    22:00 +14°C° 0 mm 2 mps 746 mmHg 85%
    23:00 +14°C° 0 mm 2 mps 746 mmHg 87%
    Show more